Mobridge, SD

9:22 AM CST on January 16, 2017 (GMT -0600)
Mobridge Municipal

Weather History for KMBG - September, 2013

Change the Weather History Date:

Wednesday, September 11, 2013

  Actual Average Record
Temperature  
Mean Temperature 69 °F 63 °F  
Max Temperature 84 °F 76 °F 100 °F (1939)
Min Temperature 54 °F 50 °F 26 °F (1955)
Degree Days  
Heating Degree Days 0 5  
Month to date heating degree days 0 38  
Since 1 July heating degree days 13 71  
Cooling Degree Days 4 3  
Month to date cooling degree days 91 40  
Year to date cooling degree days 675 621  
Growing Degree Days 18 (Base 50)    
Moisture  
Dew Point 54 °F    
Average Humidity 67    
Maximum Humidity 100    
Minimum Humidity 33    
Precipitation  
Precipitation 0.00 in 0.05 in 1.63 in (1999)
Month to date precipitation 2.73 0.52  
Year to date precipitation 16.55 14.43  
Sea Level Pressure  
Sea Level Pressure 30.10 in    
Wind  
Wind Speed 7 mph (North)    
Max Wind Speed 15 mph    
Max Gust Speed 21 mph    
Visibility 10 miles    
Events      
T = Trace of Precipitation, MM = Missing Value Source: NWS Daily Summary

Daily Weather History Graph

Daily Weather History Graph

Search for Another Location

Airport or City:

Trip Planner

Search our weather history database for the weather conditions in past years. The results will help you decide how hot, cold, wet, or windy it might be!

Date:

Astronomy

Sep. 11, 2013 Rise Set
Actual Time 7:15 AM CDT 7:59 PM CDT
Civil Twilight 6:45 AM CDT 8:29 PM CDT
Nautical Twilight 6:09 AM CDT 9:05 PM CDT
Astronomical Twilight 5:32 AM CDT 9:42 PM CDT
Moon 2:04 PM CDT (9/11) 11:38 PM CDT (9/11)
Length of Visible Light 13h 44m
Length of Day
12h 44m
Waxing Crescent, 39% of the Moon is Illuminated
Sep 11
Waxing Crescent
Sep 12
First Quarter
Sep 19
Full
Sep 26
Last Quarter
Oct 4
New

Hourly Weather History & Observations

Time (CDT) Temp. Heat Index Dew Point Humidity Pressure Visibility Wind Dir Wind Speed Gust Speed Precip Events Conditions
12:52 AM 66.0 °F - 55.9 °F 70% 30.01 in 10.0 mi NNW 5.8 mph - N/A   Clear
1:52 AM 63.0 °F - 57.0 °F 81% 30.03 in 10.0 mi NW 6.9 mph - N/A   Clear
2:52 AM 62.1 °F - 55.9 °F 80% 30.03 in 10.0 mi NW 6.9 mph - N/A   Clear
3:52 AM 60.1 °F - 55.9 °F 86% 30.04 in 10.0 mi NNW 5.8 mph - N/A   Clear
4:52 AM 59.0 °F - 55.9 °F 90% 30.05 in 10.0 mi North 5.8 mph - N/A   Clear
5:52 AM 57.0 °F - 55.0 °F 93% 30.06 in 10.0 mi NNW 4.6 mph - N/A   Clear
6:52 AM 54.0 °F - 53.1 °F 97% 30.08 in 10.0 mi Calm Calm - N/A   Clear
7:52 AM 57.9 °F - 57.0 °F 97% 30.09 in 10.0 mi North 3.5 mph - N/A   Scattered Clouds
8:52 AM 64.9 °F - 60.1 °F 84% 30.09 in 10.0 mi NNW 4.6 mph - N/A   Scattered Clouds
9:52 AM 66.9 °F - 57.9 °F 73% 30.10 in 10.0 mi NW 5.8 mph - N/A   Clear
10:52 AM 72.0 °F - 57.9 °F 61% 30.10 in 10.0 mi Calm Calm - N/A   Partly Cloudy
11:52 AM 75.0 °F - 55.9 °F 51% 30.11 in 10.0 mi Calm Calm - N/A   Overcast
12:52 PM 81.0 °F 80.5 °F 54.0 °F 39% 30.10 in 10.0 mi Calm Calm - N/A   Clear
1:52 PM 82.9 °F - 52.0 °F 34% 30.11 in 10.0 mi North 9.2 mph - N/A   Mostly Cloudy
2:52 PM 82.0 °F 81.3 °F 54.0 °F 38% 30.11 in 10.0 mi NNE 11.5 mph - N/A   Partly Cloudy
3:52 PM 81.0 °F - 52.0 °F 36% 30.11 in 10.0 mi NNE 8.1 mph - N/A   Clear
4:52 PM 81.0 °F - 48.9 °F 33% 30.11 in 10.0 mi NNE 10.4 mph - N/A   Clear
5:52 PM 81.0 °F - 50.0 °F 34% 30.11 in 10.0 mi North 11.5 mph - N/A   Clear
6:52 PM 78.1 °F - 52.0 °F 40% 30.12 in 10.0 mi North 8.1 mph - N/A   Clear
7:52 PM 69.1 °F - 55.0 °F 61% 30.13 in 10.0 mi NNE 5.8 mph - N/A   Clear
8:52 PM 68.0 °F - 51.1 °F 55% 30.15 in 10.0 mi NE 9.2 mph - N/A   Partly Cloudy
9:52 PM 66.9 °F - 48.9 °F 52% 30.17 in 10.0 mi NE 10.4 mph - N/A   Scattered Clouds
10:52 PM 64.9 °F - 48.0 °F 54% 30.18 in 10.0 mi ENE 11.5 mph - N/A   Clear
11:52 PM 63.0 °F - 46.9 °F 56% 30.19 in 10.0 mi ENE 12.7 mph - N/A   Clear